GW5846 Weather Reports


Display with metric or nautical units.
time (UTC)temp
F
wind
direction
speed
MPH
gust
MPH
rain 1hr
in
rain 24hr
in
rain mn
in
humidity
%
barometer
mb
20260504050444 48 305 1.0 1.0 0.00 0.00 0.00 65 1013.8
20260504045942 48 37 0.0 0.0 0.00 0.00 0.00 66 1013.7
20260504045437 48 97 0.0 1.0 0.00 0.00 0.00 64 1013.9
20260504044933 48 158 0.0 0.0 0.00 0.00 0.00 64 1013.9
20260504044431 48 166 0.0 1.0 0.00 0.00 0.00 62 1013.9
20260504043928 48 209 1.0 2.0 0.00 0.00 0.00 60 1013.7
20260504043425 48 29 0.0 0.0 0.00 0.00 0.00 60 1013.8
20260504042923 48 162 0.0 0.0 0.00 0.00 0.00 61 1014.0
20260504042419 48 31 0.0 0.0 0.00 0.00 0.00 62 1013.6
20260504041916 49 15 0.0 0.0 0.00 0.00 0.00 61 1013.5
20260504041412 50 292 2.0 2.0 0.00 0.00 0.00 53 1013.6
20260504040908 50 256 0.0 1.0 0.00 0.00 0.00 52 1013.7
20260504040406 50 306 0.0 0.0 0.00 0.00 0.00 52 1013.5
20260504035901 49 337 0.0 1.0 0.00 0.00 0.00 53 1013.6
20260504035359 49 341 0.0 1.0 0.00 0.00 0.00 56 1013.7
20260504034855 49 324 0.0 0.0 0.00 0.00 0.00 56 1013.6
20260504034353 49 349 0.0 0.0 0.00 0.00 0.00 58 1013.6
20260504033850 49 356 0.0 0.0 0.00 0.00 0.00 58 1013.7
20260504033348 49 8 0.0 0.0 0.00 0.00 0.00 53 1013.7
20260504032844 49 353 0.0 0.0 0.00 0.00 0.00 55 1013.6
20260504032342 49 7 0.0 0.0 0.00 0.00 0.00 56 1013.6
20260504031838 49 3 0.0 0.0 0.00 0.00 0.00 52 1013.6
20260504031336 49 336 0.0 0.0 0.00 0.00 0.00 52 1013.7
20260504030832 48 9 0.0 3.0 0.00 0.00 0.00 55 1013.8
20260504030329 48 293 0.0 2.0 0.00 0.00 0.00 58 1013.8
20260504025825 48 3 0.0 2.0 0.00 0.00 0.00 54 1013.6
20260504025322 48 359 0.0 1.0 0.00 0.00 0.00 52 1013.7
20260504024819 49 318 1.0 1.0 0.00 0.00 0.00 54 1013.7
20260504024315 49 297 0.0 1.0 0.00 0.00 0.00 51 1013.6
20260504023812 50 184 0.0 0.0 0.00 0.00 0.00 47 1013.4
20260504023309 50 294 0.0 1.0 0.00 0.00 0.00 46 1013.3
20260504022805 49 331 0.0 0.0 0.00 0.00 0.00 51 1013.3
20260504022302 49 287 3.0 4.0 0.00 0.00 0.00 56 1013.6
20260504021758 50 299 1.0 2.0 0.00 0.00 0.00 48 1013.4
20260504021256 50 301 1.0 1.0 0.00 0.00 0.00 46 1013.3
20260504020752 50 317 1.0 2.0 0.00 0.00 0.00 45 1013.2
20260504020249 49 323 1.0 1.0 0.00 0.00 0.00 50 1013.0
20260504015745 47 306 0.0 0.0 0.00 0.00 0.00 53 1013.0
20260504015242 48 10 0.0 1.0 0.00 0.00 0.00 53 1012.9
20260504014737 48 160 0.0 1.0 0.00 0.00 0.00 48 1013.1
20260504014234 48 310 1.0 1.0 0.00 0.00 0.00 47 1013.2
20260504013732 48 304 1.0 1.0 0.00 0.00 0.00 51 1012.8
20260504013229 49 316 0.0 0.0 0.00 0.00 0.00 50 1012.8
20260504012726 49 294 0.0 1.0 0.00 0.00 0.00 48 1012.9
20260504012224 50 301 1.0 2.0 0.00 0.00 0.00 46 1012.8
20260504011720 49 290 0.0 0.0 0.00 0.00 0.00 47 1012.8
20260504011217 49 267 0.0 0.0 0.00 0.00 0.00 48 1012.7
20260504010713 50 226 0.0 0.0 0.00 0.00 0.00 47 1012.7
20260504010209 51 216 0.0 1.0 0.00 0.00 0.00 45 1012.5
20260504005706 53 190 2.0 2.0 0.00 0.00 0.00 40 1012.6
20260504005203 53 324 1.0 2.0 0.00 0.00 0.00 37 1012.5
20260504004701 53 326 1.0 2.0 0.00 0.00 0.00 37 1012.5
20260504004157 53 333 2.0 2.0 0.00 0.00 0.00 37 1012.5
20260504003653 53 343 1.0 2.0 0.00 0.00 0.00 38 1012.7
20260504003150 53 3 1.0 1.0 0.00 0.00 0.00 41 1012.4
20260504002647 54 296 0.0 1.0 0.00 0.00 0.00 35 1012.4
20260504002145 52 320 0.0 0.0 0.00 0.00 0.00 41 1012.5
20260504001643 53 74 0.0 0.0 0.00 0.00 0.00 42 1012.3
20260504001138 55 25 0.0 0.0 0.00 0.00 0.00 37 1012.4
20260504000636 56 298 0.0 1.0 0.00 0.00 0.00 32 1012.5
20260504000133 55 297 0.0 1.0 0.00 0.00 0.00 32 1012.4
20260503235631 56 297 0.0 0.0 0.00 0.00 0.00 34 1012.3
20260503235127 56 288 0.0 0.0 0.00 0.00 0.00 31 1012.2
20260503234626 56 310 0.0 0.0 0.00 0.00 0.00 34 1012.4
20260503234123 58 310 0.0 0.0 0.00 0.00 0.00 31 1012.5
20260503233620 58 326 0.0 0.0 0.00 0.00 0.00 29 1012.2
20260503233116 59 355 0.0 1.0 0.00 0.00 0.00 29 1012.3
20260503232613 59 288 2.0 4.0 0.00 0.00 0.00 28 1012.3
20260503232110 59 344 0.0 1.0 0.00 0.00 0.00 28 1012.2
20260503231608 60 21 0.0 0.0 0.00 0.00 0.00 27 1012.3
20260503231104 60 300 1.0 2.0 0.00 0.00 0.00 28 1012.1
20260503230601 62 259 0.0 3.0 0.00 0.00 0.00 25 1012.2
20260503230059 62 162 0.0 1.0 0.00 0.00 0.00 25 1012.3
20260503225555 62 245 1.0 1.0 0.00 0.00 0.00 24 1012.2
20260503225050 62 49 1.0 3.0 0.00 0.00 0.00 24 1012.2
20260503224548 63 298 1.0 1.0 0.00 0.00 0.00 25 1012.0
20260503224046 64 172 0.0 2.0 0.00 0.00 0.00 23 1012.3
20260503223544 65 208 0.0 1.0 0.00 0.00 0.00 22 1012.0
20260503223039 64 27 0.0 2.0 0.00 0.00 0.00 24 1012.0
20260503222537 63 315 0.0 3.0 0.00 0.00 0.00 25 1012.1
20260503222035 63 327 1.0 7.0 0.00 0.00 0.00 24 1012.0
20260503221533 63 254 2.0 4.0 0.00 0.00 0.00 25 1012.0
20260503221030 62 48 4.0 9.0 0.00 0.00 0.00 25 1012.1
20260503220526 63 111 3.0 6.0 0.00 0.00 0.00 24 1012.4
20260503220023 65 127 2.0 2.0 0.00 0.00 0.00 23 1012.2
20260503215520 65 336 1.0 1.0 0.00 0.00 0.00 22 1012.2
20260503215017 64 227 1.0 1.0 0.00 0.00 0.00 23 1012.1
20260503214516 63 357 0.0 2.0 0.00 0.00 0.00 26 1012.2
20260503214012 63 320 4.0 8.0 0.00 0.00 0.00 25 1012.3
20260503213511 63 354 6.0 9.0 0.00 0.00 0.00 27 1012.2
20260503213007 63 221 2.0 6.0 0.00 0.00 0.00 27 1012.3
20260503212504 64 284 1.0 1.0 0.00 0.00 0.00 25 1012.3
20260503212002 64 328 1.0 2.0 0.00 0.00 0.00 25 1012.3
20260503211458 63 274 2.0 4.0 0.00 0.00 0.00 26 1012.3
20260503210954 64 278 2.0 6.0 0.00 0.00 0.00 25 1012.3
20260503210451 64 303 1.0 7.0 0.00 0.00 0.00 26 1012.3
20260503205951 62 326 2.0 4.0 0.00 0.00 0.00 25 1012.3
20260503205449 62 279 4.0 9.0 0.00 0.00 0.00 25 1012.6
20260503204945 62 209 1.0 7.0 0.00 0.00 0.00 25 1012.5
20260503204442 62 65 2.0 9.0 0.00 0.00 0.00 26 1012.6
20260503203939 62 290 2.0 8.0 0.00 0.00 0.00 27 1012.7
20260503203437 63 308 3.0 3.0 0.00 0.00 0.00 25 1012.5
20260503202933 62 301 4.0 7.0 0.00 0.00 0.00 25 1012.5
20260503202431 63 284 7.0 10.0 0.00 0.00 0.00 28 1012.6
20260503201930 63 356 2.0 4.0 0.00 0.00 0.00 28 1012.7
20260503201426 62 320 3.0 7.0 0.00 0.00 0.00 25 1012.7
20260503200924 61 11 1.0 4.0 0.00 0.00 0.00 27 1012.8
20260503200420 61 214 4.0 7.0 0.00 0.00 0.00 26 1013.0
20260503195917 61 22 2.0 11.0 0.00 0.00 0.00 27 1013.2
20260503195414 62 285 2.0 8.0 0.00 0.00 0.00 26 1013.0
20260503194911 62 100 3.0 6.0 0.00 0.00 0.00 28 1013.2
20260503194407 61 259 4.0 7.0 0.00 0.00 0.00 26 1013.1
20260503193903 60 23 2.0 4.0 0.00 0.00 0.00 29 1013.4
20260503193359 61 301 3.0 6.0 0.00 0.00 0.00 28 1013.3
20260503192854 62 211 2.0 4.0 0.00 0.00 0.00 29 1013.5
20260503192350 61 308 4.0 6.0 0.00 0.00 0.00 29 1013.4
20260503191847 59 296 2.0 7.0 0.00 0.00 0.00 28 1013.6
20260503191344 60 43 3.0 4.0 0.00 0.00 0.00 30 1013.5
20260503190841 59 71 2.0 7.0 0.00 0.00 0.00 28 1013.9
20260503190338 59 23 3.0 4.0 0.00 0.00 0.00 32 1013.9
20260503185835 61 111 2.0 7.0 0.00 0.00 0.00 33 1013.9
20260503185331 59 136 0.0 4.0 0.00 0.00 0.00 37 1014.0
20260503184826 59 127 0.0 3.0 0.00 0.00 0.00 31 1014.3
20260503184322 59 8 3.0 14.0 0.00 0.00 0.00 33 1014.2
20260503183818 59 292 3.0 4.0 0.00 0.00 0.00 30 1014.4
20260503183315 59 126 1.0 2.0 0.00 0.00 0.00 31 1014.3
20260503182813 58 34 2.0 6.0 0.00 0.00 0.00 32 1014.5
20260503182312 58 322 4.0 6.0 0.00 0.00 0.00 33 1014.6
20260503181809 58 302 5.0 13.0 0.00 0.00 0.00 32 1014.6
20260503181306 57 172 1.0 10.0 0.00 0.00 0.00 33 1014.5
20260503180802 58 41 4.0 6.0 0.00 0.00 0.00 33 1014.6
20260503180300 57 18 1.0 4.0 0.00 0.00 0.00 35 1014.6
20260503175756 57 344 4.0 6.0 0.00 0.00 0.00 36 1014.4
20260503175254 56 274 2.0 6.0 0.00 0.00 0.00 39 1014.6
20260503174749 56 337 3.0 8.0 0.00 0.00 0.00 34 1014.7
20260503174248 56 284 8.0 10.0 0.00 0.00 0.00 34 1014.6
20260503173748 56 29 1.0 4.0 0.00 0.00 0.00 34 1014.6
20260503173244 55 18 3.0 7.0 0.00 0.00 0.00 36 1014.7
20260503172741 55 164 4.0 9.0 0.00 0.00 0.00 38 1014.7
20260503172238 54 328 7.0 11.0 0.00 0.00 0.00 39 1014.8
20260503171734 55 281 4.0 7.0 0.00 0.00 0.00 35 1015.0
20260503171231 56 27 3.0 6.0 0.00 0.00 0.00 35 1014.9
20260503170728 55 50 1.0 4.0 0.00 0.00 0.00 36 1015.0
20260503170225 55 307 2.0 7.0 0.00 0.00 0.00 37 1015.2
20260503160147 53 14 6.0 8.0 0.00 0.00 0.00 39 1015.8
20260503150617 50 36 4.0 9.0 0.00 0.00 0.00 43 1016.2
20260503150113 50 107 4.0 4.0 0.00 0.00 0.00 43 1016.1
20260503131007 46 27 4.0 7.0 0.00 0.00 0.00 48 1015.9
20260503130504 46 20 1.0 4.0 0.00 0.00 0.00 49 1016.0
20260503110400 41 305 0.0 0.0 0.00 0.00 0.00 68 1015.0
20260503090252 40 64 4.0 4.0 0.00 0.00 0.00 67 1013.4
20260503081225 41 37 4.0 8.0 0.00 0.00 0.00 66 1013.2
20260503080720 42 64 3.0 4.0 0.00 0.00 0.00 67 1013.2
20260503080218 42 5 4.0 4.0 0.00 0.00 0.00 66 1013.1
20260503072654 42 16 0.0 4.0 0.00 0.00 0.00 67 1012.8
20260503072151 42 20 2.0 2.0 0.00 0.00 0.00 68 1012.6
20260503071648 42 6 1.0 2.0 0.00 0.00 0.00 67 1012.6
20260503071145 42 38 2.0 4.0 0.00 0.00 0.00 67 1012.7
20260503070642 42 345 3.0 3.0 0.00 0.00 0.00 68 1012.6
20260503070140 42 49 1.0 3.0 0.00 0.00 0.00 69 1012.7